Location: Coupvray
(48.8929°N, 2.7967°E)
Time: 07:27:14
(UTC+00:00)

Cosmos 2221 Rocket - Pass Details

Date: 14 July 2020
Orbit: 620 x 649 km, 82.5° (Epoch: 14 August)

Event Time Altitude Azimuth Distance (km) Brightness Sun altitude
Rises 02:09:26 0° 347° (NNW) 2,915 7.7 -13.4°
Reaches altitude 10° 02:11:41 10° 343° (NNW) 2,002 6.8 -13.2°
Maximum altitude 02:16:03 59° 265° (W) 723 3.7 -12.8°
Enters shadow 02:19:27 16° 189° (S) 1,635 5.2 -12.5°
